SCP
1 1 1 1 1 1 1 1 1 1 1 1 1 1 1 1 1 1 1 0 0 0 0 0 0 1 0 0 0 0 0 0 0 0 0 0 0 0 0 0 0 0 0
1 1 1 1 1 1 1 1 1 1 1 1 1 1 1 1 1 1 1 1 0 0 0 0 1 1 1 1 0 0 0 0 0 0 0 0 0 0 0 0 0 0 0
1 1 1 1 1 1 1 1 1 1 1 1 1 1 1 1 1 1 1 1 1 1 1 1 1 1 1 1 1 1 0 0 0 0 0 0 0 0 0 0 0 0 0
1 1 1 1 1 1 1 1 1 1 1 1 1 1 1 1 1 1 1 1 1 1 1 1 1 1 1 1 1 1 1 1 1 1 0 0 0 0 0 0 0 0 0
2 2 2 2 2 2 2 2 2 2 2 1 1 1 1 1 1 1 1 1 1 1 1 1 1 1 1 1 1 1 1 1 1 1 1 1 0 0 0 0 0 0 0
2 2 2 2 2 2 2 2 2 2 2 1 1 1 1 1 1 1 1 1 1 1 1 1 1 1 0 0 0 0 0 1 1 1 1 1 1 0 0 0 0 0 0
2 2 2 2 2 2 2 2 2 2 2 1 1 1 1 1 1 0 0 1 1 1 1 1 1 1 0 0 0 0 0 0 0 1 1 0 0 0 0 0 0 0 0
2 2 2 2 2 2 2 2 2 2 2 1 1 1 1 1 1 0 0 1 1 1 1 1 1 1 1 1 1 1 0 0 0 0 0 0 0 0 0 0 0 0 0
1 1 2 2 2 2 2 1 1 2 2 1 1 1 1 1 1 0 0 1 1 1 1 1 1 1 1 1 1 1 1 0 0 0 0 0 0 0 0 0 0 0 0
1 1 1 1 1 1 1 1 1 1 1 1 1 1 1 1 1 0 0 1 1 1 1 1 1 1 0 0 1 1 1 0 0 0 0 0 0 0 0 0 0 0 0
1 1 1 1 1 1 1 1 1 1 1 1 1 1 1 1 1 0 0 1 1 1 1 1 1 0 0 0 0 0 0 0 0 0 0 0 0 0 0 0 0 0 0
1 1 1 1 1 1 1 1 1 1 1 1 1 1 1 1 1 0 0 0 0 1 1 1 1 0 0 0 0 0 0 0 0 0 0 0 0 0 0 0 0 0 0
1 1 1 1 1 1 1 1 1 1 1 1 1 1 1 1 1 0 0 0 0 0 1 1 0 0 0 0 0 0 0 0 0 0 0 0 0 0 0 0 0 0 0
1 1 1 1 1 1 1 1 1 1 1 1 1 1 1 1 1 0 0 0 0 0 0 0 0 0 0 0 0 0 0 0 0 0 0 0 0 0 0 0 0 0 0
1 1 1 1 1 1 1 1 1 1 1 1 1 1 1 1 0 0 0 0 0 0 0 0 0 0 0 0 0 0 0 0 0 0 0 0 0 0 0 0 0 0 0
1 1 1 1 1 1 1 1 1 1 0 0 1 1 0 0 0 0 0 0 0 0 0 0 0 0 0 0 0 0 0 0 0 0 0 0 0 0 0 0 0 0 0
1 1 1 1 1 1 1 1 1 0 0 0 0 0 0 0 0 0 0 0 0 0 0 0 0 0 0 0 0 0 0 0 0 0 0 0 0 0 0 0 0 0 0
1 1 1 1 1 1 1 1 1 1 0 0 0 0 0 0 0 0 0 0 0 0 0 0 0 0 0 0 0 0 0 0 0 0 0 0 0 0 0 0 0 0 0
1 1 1 1 1 1 1 1 1 1 1 0 0 0 0 0 0 0 0 0 0 0 0 0 0 0 0 0 0 0 0 0 0 0 0 0 0 0 0 0 0 0 0
1 1 1 1 1 1 1 1 1 1 1 0 0 0 0 0 0 0 0 0 0 0 0 0 0 0 0 0 0 0 0 0 0 0 0 0 0 0 0 0 0 0 0
1 1 1 1 1 1 1 1 1 1 1 0 0 0 0 0 0 0 0 0 0 0 0 0 0 0 0 0 0 0 0 0 0 0 0 0 0 0 0 0 0 0 0
0 0 1 1 1 1 1 1 1 0 0 0 0 0 0 0 0 0 0 0 0 0 0 0 0 0 0 0 0 0 0 0 0 0 0 0 0 0 0 0 0 0 0
0 0 0 0 0 0 0 0 0 0 0 0 0 0 0 0 0 0 0 0 0 0 0 0 0 0 0 0 0 0 0 0 0 0 0 0 0 0 0 0 0 0 0
0 0 0 0 0 0 0 0 0 0 0 0 0 0 0 0 0 0 0 0 0 0 0 0 0 0 0 0 0 0 0 0 0 0 0 0 0 0 0 0 0 0 0
0 0 0 0 0 0 0 0 0 0 0 0 0 0 0 0 0 0 0 0 0 0 0 0 0 0 0 0 0 0 0 0 0 0 0 0 0 0 0 0 0 0 0
0 0 0 0 0 0 0 0 0 0 0 0 0 0 0 0 0 0 0 0 0 0 0 0 0 0 0 0 0 0 0 0 0 0 0 0 0 0 0 0 0 0 0
Wind_Speed
9 9 9 10 10 10 9 9 9 8 8 8 7 7 7 7 6 6 7 6 6 6 6 6 6 5 4 4 4 4 4 5 5 4 3 2 2 4 2 4 4 5 4
8 8 9 9 9 10 10 10 9 9 9 8 8 8 8 8 7 7 8 7 7 7 7 6 6 5 5 5 4 5 4 4 6 5 4 3 3 3 3 4 4 4 3
7 8 8 9 10 10 9 9 9 9 8 8 8 8 8 7 7 7 7 7 7 7 7 7 7 6 6 4 5 5 5 5 4 5 4 3 3 2 3 4 4 3 4
6 7 8 8 8 9 9 9 9 9 9 8 8 8 8 7 7 7 7 7 7 7 7 7 7 6 6 5 5 5 5 5 4 5 4 4 3 3 3 4 3 2 3
5 6 7 7 7 7 8 8 8 9 9 8 8 8 8 7 6 6 7 7 6 6 6 6 6 4 3 4 4 4 4 5 5 5 5 4 3 2 3 3 3 3 2
4 4 4 5 6 7 7 8 8 8 8 8 9 8 8 6 4 5 6 6 5 6 6 6 5 5 4 4 3 3 4 6 6 5 5 4 4 4 3 4 4 4 3
3 3 3 3 4 5 6 6 7 7 7 8 8 8 8 6 6 6 6 6 6 5 5 6 5 3 5 5 5 6 5 4 5 7 6 5 4 3 3 5 4 5 5
3 3 3 3 3 3 4 5 6 6 6 7 7 8 7 7 8 8 7 8 6 5 6 6 5 5 4 4 5 5 5 4 5 6 5 5 4 3 4 5 5 5 6
4 4 3 3 3 3 4 5 4 4 5 6 6 7 7 7 8 9 8 6 5 6 7 6 6 6 3 3 5 5 4 4 3 2 2 2 2 3 4 5 4 5 5
4 3 3 3 4 4 4 5 4 4 5 5 5 6 7 7 8 9 9 6 6 6 5 6 6 5 5 5 6 5 5 4 3 3 4 6 6 6 6 6 5 5 5
3 3 3 3 4 4 4 4 4 5 5 5 5 5 5 5 7 10 9 6 5 6 5 5 3 6 5 5 6 5 4 4 4 5 4 4 5 4 4 4 4 5 6
3 4 4 4 5 4 4 5 5 5 5 5 5 4 4 4 5 7 8 8 6 6 5 4 2 5 4 5 5 3 3 5 5 5 4 4 4 3 3 3 3 5 5
4 4 4 5 5 4 5 5 5 5 6 5 4 4 3 3 4 7 8 7 7 5 3 0 2 5 5 5 6 6 6 6 5 5 4 4 3 3 3 3 5 5 7
5 5 4 5 5 4 4 5 5 5 5 5 4 4 3 3 3 3 4 4 5 5 3 2 5 7 6 4 5 6 6 4 4 4 4 4 4 4 4 3 4 4 4
6 6 6 5 5 4 5 4 5 4 3 4 4 4 4 4 2 2 3 3 3 2 2 3 4 4 4 4 4 4 4 4 4 4 4 4 4 4 3 3 3 4 4
6 6 5 5 4 5 5 3 1 2 0 1 3 5 4 1 3 3 2 2 3 5 4 5 4 4 4 4 4 4 4 4 3 4 4 4 4 4 4 4 4 4 4
7 6 5 5 4 5 5 5 3 2 2 1 2 2 3 2 3 4 4 4 4 6 5 4 3 3 3 3 3 4 4 3 3 4 4 4 4 4 4 4 4 4 5
7 6 6 5 5 5 5 5 4 4 3 2 2 2 3 3 4 5 5 4 3 4 4 2 2 2 2 2 2 3 2 2 3 4 4 4 4 4 4 4 4 5 5
7 6 5 4 4 4 4 4 4 4 3 2 2 3 4 5 5 5 6 4 3 3 3 2 2 2 2 2 2 3 3 3 3 4 3 4 4 4 4 5 4 4 6
5 5 5 4 4 4 3 3 4 3 3 2 2 2 3 4 3 3 3 3 3 3 3 3 2 2 2 3 3 3 3 3 3 4 3 3 3 4 5 5 4 4 5
5 3 4 5 4 3 3 3 3 2 2 2 2 2 2 3 3 3 3 3 3 2 2 3 3 3 3 3 3 3 4 3 3 3 3 3 4 4 4 4 4 4 4
4 4 3 3 2 2 2 2 2 2 2 2 2 3 5 3 2 3 3 3 3 3 3 3 3 3 2 2 3 3 4 3 3 3 3 4 4 4 4 5 4 4 4
4 3 2 2 2 2 2 2 2 2 2 2 2 2 3 2 2 2 2 3 3 3 3 3 3 3 2 2 2 3 3 3 3 3 4 4 5 5 5 5 5 6 5
4 3 3 3 2 2 2 2 2 1 1 1 1 2 2 2 3 3 3 3 3 3 3 3 3 3 3 3 3 3 2 2 4 4 6 6 6 5 5 5 5 5 5
3 3 3 3 3 3 2 2 2 1 2 2 2 2 2 2 3 3 3 2 3 3 3 3 2 3 3 4 4 2 1 1 3 5 6 6 6 6 6 6 5 5 5
3 3 3 2 2 2 2 2 2 2 2 2 2 2 3 3 3 3 3 2 2 3 3 3 3 4 4 4 3 1 1 2 3 5 6 6 7 6 6 6 7 6 6
Wind_Direction
207 208 212 210 209 213 219 224 224 229 227 228 229 229 230 229 228 231 247 242 245 245 246 242 243 260 263 265 259 258 254 258 267 274 271 268 270 277 258 261 251 244 200
205 205 210 212 212 214 215 218 218 221 225 225 228 231 234 232 231 232 240 241 243 245 243 241 241 237 238 258 265 263 264 263 261 270 274 264 251 256 256 265 267 263 267
201 208 213 215 214 216 218 216 215 217 222 225 225 227 232 233 233 235 240 244 247 248 244 240 240 242 245 248 255 261 261 255 255 261 264 270 260 257 254 249 253 263 267
202 211 216 221 221 220 220 219 219 218 219 222 224 225 228 232 235 237 238 242 245 249 249 245 241 241 242 242 243 248 259 266 256 258 260 255 250 244 254 259 249 232 270
202 216 222 225 225 224 223 222 221 220 220 219 222 224 228 228 231 233 237 235 238 245 246 245 241 237 259 263 268 258 255 258 257 254 257 258 257 260 262 269 271 267 234
203 219 224 228 225 221 220 219 219 220 222 220 222 224 225 227 196 207 235 242 240 244 249 249 243 217 210 227 257 277 283 263 267 267 261 265 270 268 277 278 279 277 270
197 217 221 225 221 219 220 217 220 221 220 222 223 224 226 217 190 193 212 237 240 242 247 249 253 229 208 221 210 217 237 253 261 272 276 277 275 281 282 272 274 284 292
201 219 222 223 226 227 224 221 223 224 224 225 226 226 228 213 188 194 207 225 234 237 243 243 242 241 233 234 240 234 233 232 240 246 261 271 278 288 268 266 268 259 254
217 224 227 229 233 229 223 223 225 228 229 231 230 230 228 217 192 192 206 223 224 235 239 237 234 232 188 211 233 234 233 230 212 201 251 267 313 287 284 271 263 263 263
240 240 238 239 240 235 230 226 226 229 231 235 233 232 232 226 192 190 205 228 222 228 228 227 215 217 186 202 229 230 231 235 237 204 212 221 227 223 225 250 267 268 272
254 248 246 242 242 243 241 240 233 232 231 235 236 235 230 221 192 192 206 234 238 237 235 232 202 167 181 207 238 241 239 256 249 242 235 232 229 230 227 231 260 275 278
260 252 250 247 249 242 236 239 236 232 230 225 221 229 222 203 197 190 199 224 261 257 253 249 182 156 189 219 233 221 217 245 245 241 245 246 244 244 242 251 257 268 276
258 253 253 251 248 246 237 236 236 229 235 231 225 227 223 206 187 186 196 208 227 250 265 242 155 176 197 216 205 202 216 235 243 243 246 252 258 262 259 242 239 242 250
258 255 248 244 241 234 235 236 239 241 242 239 237 238 235 220 210 195 200 200 197 213 223 181 184 203 216 212 201 209 227 241 250 251 257 261 260 249 248 255 258 253 256
265 259 255 249 245 243 243 254 252 256 265 252 247 241 238 235 200 168 226 228 227 212 211 221 220 214 218 220 225 227 227 219 231 246 252 252 255 255 255 257 261 265 262
263 262 258 253 243 241 239 244 262 261 203 232 268 267 258 234 151 155 174 183 176 183 216 225 224 227 230 230 234 235 235 233 239 247 254 256 255 256 257 256 254 260 266
266 270 269 265 253 244 241 239 236 216 182 197 234 245 234 193 166 162 160 166 186 194 221 230 228 234 241 242 242 243 240 239 253 255 254 257 258 259 261 263 263 264 265
263 259 256 260 260 255 249 249 246 241 228 206 156 143 161 166 165 163 161 170 200 216 235 237 230 227 232 243 250 251 246 240 247 257 259 263 263 264 267 267 263 267 271
262 264 259 264 264 259 254 249 248 245 243 234 194 144 149 147 155 172 185 217 215 218 226 222 222 226 225 233 241 246 246 250 259 266 268 277 278 272 269 270 269 261 264
254 252 258 263 259 252 248 245 247 240 232 223 216 187 165 175 175 175 201 233 228 214 213 212 216 224 226 230 233 239 242 241 246 256 264 270 277 281 278 275 276 272 265
265 248 222 245 250 250 248 245 245 242 230 213 194 147 184 209 190 185 200 220 234 225 218 216 210 212 219 226 234 242 252 253 254 264 268 269 275 278 279 279 278 275 275
267 259 251 255 255 248 255 254 244 234 221 219 210 163 173 207 204 201 204 215 228 227 216 216 214 216 228 232 231 241 249 259 267 272 274 274 272 272 275 278 281 283 275
265 257 243 246 238 214 224 237 241 237 227 221 218 206 198 208 216 221 219 217 224 226 220 221 226 222 219 229 237 242 253 257 265 275 277 274 272 272 274 278 278 278 279
253 249 238 228 229 236 236 234 238 244 234 244 246 239 218 204 221 221 224 224 222 225 223 224 232 230 232 244 241 238 245 271 274 263 266 266 267 268 272 274 274 276 276
248 247 243 240 234 229 227 220 213 221 233 239 238 234 228 224 224 224 225 231 234 234 233 235 237 237 237 248 256 263 75 252 266 274 259 257 257 260 264 268 267 265 262
237 231 237 241 246 243 227 214 215 229 242 240 231 226 230 232 230 223 223 231 242 244 245 242 244 249 249 243 237 163 158 221 251 266 262 253 253 253 257 258 260 262 259